Rogers, AR

1:02 PM CDT on September 21, 2017 (GMT -0500)
Rogers Municipal-Carter

Weather History for KROG - December, 2013

Change the Weather History Date:

Sunday, December 8, 2013

  Actual Average Record
Temperature  
Mean Temperature 24 °F -  
Max Temperature 28 °F 47 °F 64 °F (2015)
Min Temperature 19 °F 31 °F 10 °F (2006)
Degree Days  
Heating Degree Days 42    
Moisture  
Dew Point 22 °F    
Average Humidity 90    
Maximum Humidity 100    
Minimum Humidity 68    
Precipitation  
Precipitation 0.00 in - - ()
Sea Level Pressure  
Sea Level Pressure 30.13 in    
Wind  
Wind Speed 8 mph (South)    
Max Wind Speed 13 mph    
Max Gust Speed -    
Visibility 4 miles    
Events Rain , Snow    
Averages and records for this station are not official NWS values.
T = Trace of Precipitation, MM = Missing Value Source: NWS Daily Summary

Daily Weather History Graph

Daily Weather History Graph

Search for Another Location

Airport or City:

Trip Planner

Search our weather history database for the weather conditions in past years. The results will help you decide how hot, cold, wet, or windy it might be!

Date:

Astronomy

Dec. 08, 2013 Rise Set
Actual Time 7:15 AM CST 5:01 PM CST
Civil Twilight 6:47 AM CST 5:29 PM CST
Nautical Twilight 6:15 AM CST 6:01 PM CST
Astronomical Twilight 5:43 AM CST 6:33 PM CST
Moon 11:44 AM CST (12/8) 11:42 PM CST (12/8)
Length of Visible Light 10h 42m
Length of Day
9h 45m
Waxing Crescent, 40% of the Moon is Illuminated
Dec 8
Waxing Crescent
Dec 9
First Quarter
Dec 17
Full
Dec 25
Last Quarter
Jan 1
New

Hourly Weather History & Observations

Time (CST) Temp. Windchill Dew Point Humidity Pressure Visibility Wind Dir Wind Speed Gust Speed Precip Events Conditions
12:57 AM 21.0 °F 9.9 °F 12.0 °F 68% 30.28 in 10.0 mi East 10.4 mph - N/A   Overcast
1:57 AM 21.0 °F - 12.0 °F 68% 30.24 in 10.0 mi North - - 0.00 in Snow Light Snow
2:50 AM 21.2 °F 9.5 °F 14.0 °F 74% 30.16 in 6.0 mi East 11.5 mph - 0.00 in Snow Light Snow
2:57 AM 21.9 °F - 15.1 °F 75% 30.21 in 8.0 mi North - - 0.00 in Snow Light Snow
3:57 AM 21.0 °F - 17.1 °F 85% 30.20 in 9.0 mi North - - 0.00 in Snow Light Snow
4:14 AM 19.4 °F - 17.6 °F 93% 30.15 in 2.5 mi North - - 0.00 in Rain Light Freezing Rain
4:18 AM 21.2 °F 12.6 °F 17.6 °F 86% 30.15 in 2.5 mi ESE 6.9 mph - 0.00 in Rain Light Freezing Rain
4:23 AM 21.2 °F 12.6 °F 19.4 °F 93% 30.15 in 2.5 mi SE 6.9 mph - 0.00 in Snow Light Snow
4:32 AM 21.2 °F 12.6 °F 19.4 °F 93% 30.15 in 2.5 mi ESE 6.9 mph - 0.00 in Snow Light Snow
4:39 AM 21.2 °F 12.6 °F 19.4 °F 93% 30.16 in 2.5 mi ESE 6.9 mph - 0.00 in Rain Light Freezing Rain
4:42 AM 21.2 °F 13.6 °F 19.4 °F 93% 30.16 in 3.0 mi ESE 5.8 mph - 0.00 in Rain Light Freezing Rain
4:57 AM 21.2 °F 13.6 °F 19.4 °F 93% 30.15 in 3.0 mi ESE 5.8 mph - 0.00 in   Overcast
4:59 AM 21.0 °F 13.4 °F 19.0 °F 92% 30.21 in 3.0 mi ESE 5.8 mph - 0.00 in   Overcast
5:02 AM 21.2 °F 12.6 °F 19.4 °F 93% 30.15 in 3.0 mi ESE 6.9 mph - 0.00 in Rain Light Freezing Rain
5:05 AM 21.2 °F 11.7 °F 19.4 °F 93% 30.15 in 2.5 mi ESE 8.1 mph - 0.00 in Rain Light Freezing Rain
5:14 AM 21.2 °F 11.7 °F 19.4 °F 93% 30.14 in 3.0 mi ESE 8.1 mph - 0.00 in Rain Light Freezing Rain
5:57 AM 21.2 °F 13.6 °F 19.4 °F 93% 30.14 in 4.0 mi SSE 5.8 mph - 0.00 in Rain Light Freezing Rain
5:59 AM 21.9 °F 14.5 °F 19.9 °F 92% 30.20 in 4.0 mi SE 5.8 mph - 0.00 in Rain Light Freezing Rain
6:06 AM 21.2 °F 13.6 °F 19.4 °F 93% 30.14 in 3.0 mi SE 5.8 mph - 0.00 in Snow Light Snow
6:12 AM 21.2 °F 13.6 °F 19.4 °F 93% 30.14 in 2.5 mi SE 5.8 mph - 0.00 in Snow Light Snow
6:15 AM 21.2 °F 12.6 °F 19.4 °F 93% 30.13 in 2.5 mi SE 6.9 mph - 0.00 in Rain Light Freezing Rain
6:27 AM 21.2 °F - 19.4 °F 93% 30.13 in 3.0 mi North - - 0.00 in Rain Light Freezing Rain
6:31 AM 21.2 °F - 19.4 °F 93% 30.13 in 3.0 mi North - - 0.00 in   Overcast
6:37 AM 21.2 °F - 19.4 °F 93% 30.13 in 3.0 mi North - - 0.00 in Rain Light Freezing Rain
6:57 AM 21.9 °F - 19.9 °F 92% 30.18 in 4.0 mi North - - 0.00 in Rain Light Freezing Rain
7:14 AM 21.2 °F - 19.4 °F 93% 30.12 in 2.0 mi North - - 0.00 in Rain Light Freezing Rain
7:17 AM 21.2 °F - 19.4 °F 93% 30.12 in 1.8 mi North - - 0.00 in Snow Light Snow
7:22 AM 21.2 °F - 19.4 °F 93% 30.12 in 1.5 mi North - - 0.00 in Snow Light Snow
7:44 AM 21.2 °F - 21.2 °F 100% 30.12 in 2.0 mi North - - 0.00 in   Overcast
7:54 AM 21.2 °F - 21.2 °F 100% 30.12 in 1.8 mi North - - 0.00 in   Overcast
7:57 AM 21.9 °F - 21.0 °F 96% 30.18 in 1.8 mi North - - 0.00 in   Overcast
8:08 AM 21.2 °F - 21.2 °F 100% 30.12 in 2.0 mi North - - N/A   Overcast
8:40 AM 23.0 °F - 21.2 °F 93% 30.13 in 3.0 mi North - - N/A   Overcast
8:49 AM 23.0 °F - 21.2 °F 93% 30.12 in 2.5 mi North - - N/A   Overcast
8:57 AM 23.0 °F - 21.0 °F 92% 30.17 in 1.8 mi North - - N/A   Overcast
9:11 AM 24.8 °F - 21.2 °F 86% 30.13 in 2.0 mi North - - 0.00 in Snow Light Snow
9:18 AM 24.8 °F - 21.2 °F 86% 30.13 in 3.0 mi North - - 0.00 in   Overcast
9:31 AM 24.8 °F - 21.2 °F 86% 30.13 in 2.5 mi North - - 0.00 in   Overcast
9:46 AM 24.8 °F - 23.0 °F 93% 30.13 in 3.0 mi North - - 0.00 in   Overcast
9:57 AM 25.0 °F - 23.0 °F 92% 30.17 in 3.0 mi North - - 0.00 in   Overcast
10:57 AM 27.0 °F - 24.1 °F 89% 30.14 in 4.0 mi North - - N/A   Overcast
11:06 AM 26.6 °F - 24.8 °F 93% 30.09 in 3.0 mi North - - N/A   Overcast
11:30 AM 28.4 °F - 24.8 °F 86% 30.07 in 2.5 mi North - - N/A   Overcast
11:57 AM 28.0 °F - 24.1 °F 85% 30.09 in 2.5 mi North - - N/A   Overcast
12:25 PM 26.6 °F - 24.8 °F 93% 30.02 in 3.0 mi North - - N/A   Overcast
12:57 PM 28.0 °F - 24.1 °F 85% 30.05 in 4.0 mi North - - N/A   Overcast
1:57 PM 28.0 °F 19.3 °F 25.0 °F 88% 30.04 in 4.0 mi SSW 9.2 mph - N/A   Overcast
2:24 PM 28.4 °F 21.2 °F 24.8 °F 86% 30.00 in 2.5 mi SSW 6.9 mph - N/A   Overcast
2:34 PM 28.4 °F 21.2 °F 24.8 °F 86% 29.99 in 3.0 mi SSW 6.9 mph - N/A   Overcast
2:57 PM 28.9 °F - 25.0 °F 85% 30.04 in 4.0 mi North - - N/A   Overcast
3:57 PM 28.0 °F 21.7 °F 26.1 °F 92% 30.04 in 5.0 mi South 5.8 mph - 0.00 in   Overcast
4:57 PM 28.0 °F - 26.1 °F 92% 30.05 in 4.0 mi North - - N/A   Overcast
5:57 PM 28.0 °F 20.8 °F 25.0 °F 88% 30.07 in 6.0 mi SW 6.9 mph - N/A   Overcast
6:37 PM 28.4 °F 20.4 °F 26.6 °F 93% 30.06 in 2.5 mi SW 8.1 mph - 0.00 in Snow Light Snow
6:57 PM 28.4 °F 20.4 °F 26.6 °F 93% 30.07 in 3.0 mi WSW 8.1 mph - 0.00 in   Overcast
6:59 PM 28.0 °F 19.3 °F 26.1 °F 92% 30.12 in 3.0 mi WSW 9.2 mph - 0.00 in   Overcast
7:57 PM 28.0 °F 19.3 °F 26.1 °F 92% 30.14 in 4.0 mi WSW 9.2 mph - 0.00 in   Overcast
8:16 PM 28.4 °F 21.2 °F 26.6 °F 93% 30.10 in 2.5 mi WSW 6.9 mph - 0.00 in Snow Light Snow
8:28 PM 28.4 °F 21.2 °F 26.6 °F 93% 30.10 in 3.0 mi Variable 6.9 mph - 0.00 in   Overcast
8:48 PM 28.4 °F 19.1 °F 26.6 °F 93% 30.10 in 2.5 mi West 10.4 mph - 0.00 in Snow Light Snow
8:57 PM 28.4 °F 19.7 °F 26.6 °F 93% 30.10 in 3.0 mi West 9.2 mph - 0.00 in   Overcast
8:59 PM 28.0 °F 19.3 °F 26.1 °F 92% 30.14 in 4.0 mi WSW 9.2 mph - 0.00 in   Overcast
9:57 PM 28.0 °F 17.5 °F 26.1 °F 92% 30.17 in 4.0 mi West 12.7 mph - 0.00 in Snow Light Snow
10:57 PM 28.0 °F 18.1 °F 26.1 °F 92% 30.18 in 6.0 mi West 11.5 mph - 0.00 in   Overcast
11:57 PM 27.0 °F - 24.1 °F 89% 30.20 in 10.0 mi North - - 0.00 in   Overcast